Wind_Speed
34 35 34 34 35 36 37 38 38 38 39 41 41 42 42 42 43 43 44 44 45 45 45 46 46 47 48 48 48 48 49 49 49 50 50 50 50 50 50 50 50 50 50 50
34 34 34 35 35 36 37 38 38 39 40 42 43 43 43 44 44 45 45 45 46 46 46 47 48 49 49 50 50 51 51 51 51 52 52 52 53 53 53 53 53 53 52 52
35 34 34 35 35 36 37 38 39 40 41 42 44 44 43 44 45 45 46 46 47 47 47 48 49 50 50 51 52 52 53 53 53 54 54 55 55 55 55 55 55 55 55 54
34 34 34 35 36 37 37 37 39 40 41 42 42 44 43 43 44 45 46 47 47 48 48 49 49 50 51 52 53 53 53 54 54 54 54 55 55 56 56 56 56 56 56 56
35 35 35 36 36 37 38 38 39 40 41 42 42 44 43 44 45 45 46 47 48 48 49 49 50 51 52 52 53 53 53 53 53 53 54 55 55 56 56 56 56 56 57 57
35 36 36 36 36 37 38 39 40 41 41 42 41 43 44 44 44 45 45 46 47 48 49 49 49 50 51 52 52 52 52 53 53 54 55 55 56 56 56 56 56 57 58 58
36 36 37 37 37 37 38 38 40 41 42 43 42 44 44 43 43 43 44 45 47 48 49 49 50 50 50 51 51 51 52 52 53 54 55 56 56 56 56 56 57 58 58 58
37 37 37 37 37 37 37 38 39 41 43 44 43 44 43 42 43 43 44 45 46 47 49 50 50 50 50 51 51 51 51 52 53 54 55 55 55 56 55 55 57 58 58 58
37 38 37 37 37 38 38 38 39 42 44 44 44 43 42 42 43 43 44 45 46 47 48 49 50 51 51 51 51 52 52 52 53 53 54 54 55 55 55 56 56 57 57 58
37 38 37 37 38 38 38 39 39 40 42 44 44 43 43 42 42 43 44 45 46 47 47 48 49 49 50 51 52 52 52 53 53 53 53 54 54 54 54 55 56 56 57 58
38 39 39 38 38 38 38 38 39 40 41 43 44 43 43 43 43 43 44 45 46 46 46 47 47 48 49 50 51 52 53 52 52 53 53 53 53 53 54 55 55 56 57 58
38 39 38 38 38 39 39 39 39 40 41 43 45 44 42 42 43 43 44 43 44 44 45 46 46 47 48 49 49 50 51 51 51 51 52 53 53 53 54 54 55 56 57 57
37 38 39 39 39 39 39 39 39 40 42 42 43 42 41 41 42 43 43 42 42 43 43 44 45 46 47 47 47 48 48 49 50 50 50 51 51 52 52 53 54 55 55 56
38 38 38 39 38 38 39 38 38 40 41 42 41 41 39 40 41 41 41 40 41 41 41 41 42 42 43 44 44 45 46 47 48 48 48 49 50 51 52 53 53 54 54 54
38 38 38 38 38 38 38 38 38 40 40 42 40 40 38 39 39 40 39 39 39 40 40 40 40 40 40 40 41 42 43 44 45 46 47 48 49 50 51 52 53 54 54 54
37 38 38 38 38 38 38 38 39 39 39 40 40 38 38 38 38 38 38 38 38 38 38 39 38 38 39 39 40 41 42 43 44 45 45 46 48 49 50 51 52 53 54 54
36 37 38 39 38 39 38 37 37 38 38 38 37 36 36 35 35 35 35 36 36 37 37 38 38 38 38 38 38 39 39 40 41 42 43 44 45 46 47 48 50 51 52 53
35 36 37 37 37 38 36 36 36 36 35 35 34 33 33 34 34 34 34 35 36 36 36 36 36 36 36 36 36 37 38 39 40 40 40 41 42 43 45 46 47 48 50 51
34 34 34 35 35 36 33 32 32 32 31 31 32 32 33 33 34 34 34 35 35 35 35 35 35 35 35 36 36 36 37 37 37 38 39 40 40 41 43 44 45 46 47 48
31 31 32 32 33 34 31 30 30 31 31 30 31 32 32 33 34 34 33 34 34 34 34 34 33 33 34 34 35 35 35 36 36 37 37 38 39 40 41 42 42 43 44 46
30 30 30 30 31 31 29 29 29 30 30 30 31 32 32 33 34 34 34 33 33 33 32 32 32 32 33 34 34 34 34 34 35 35 36 37 37 38 39 39 40 41 42 43
29 29 30 29 30 29 28 28 29 30 31 32 32 33 33 33 33 34 34 33 33 32 32 31 32 32 33 33 33 32 33 33 34 35 35 35 36 36 37 38 38 39 39 40
28 28 28 29 29 29 28 29 30 31 31 32 32 32 33 33 33 33 33 32 32 32 32 32 32 32 33 33 33 33 33 33 34 34 35 35 35 35 35 35 36 36 37 38
27 28 28 28 28 28 29 31 32 32 32 31 32 33 33 33 33 33 33 32 32 32 33 33 33 33 33 34 34 34 34 34 34 34 35 35 35 35 35 34 34 35 35 36
28 29 29 29 29 30 31 31 32 32 32 32 33 33 33 34 33 33 33 33 33 34 34 34 34 34 34 34 35 36 36 35 35 35 35 35 35 35 34 34 34 35 35 36
28 29 30 30 30 31 31 32 32 32 32 32 32 32 33 33 33 33 33 34 34 34 35 35 35 35 35 35 35 35 35 35 35 35 35 34 34 33 33 34 34 35 35 35
Wind_Direction
279 279 279 279 278 277 276 275 274 273 272 271 270 270 269 268 268 268 268 268 268 268 268 268 267 267 266 265 264 264 264 263 263 263 263 262 262 262 261 260 260 260 259 260
279 279 279 278 277 277 277 277 277 276 275 274 273 271 271 270 270 270 270 269 269 268 268 268 268 267 267 266 265 265 265 265 264 264 263 262 262 261 261 261 260 260 259 259
279 280 279 278 278 278 277 278 278 277 277 276 275 273 273 272 272 271 271 270 269 268 268 268 268 268 268 267 267 266 266 265 264 264 263 262 261 261 261 260 260 260 259 260
280 280 279 279 279 279 279 279 278 278 278 278 278 278 274 274 273 273 272 271 270 270 269 268 268 268 268 268 268 267 266 266 264 264 263 262 261 261 261 261 261 261 260 260
282 280 280 280 280 280 279 279 278 278 278 278 279 278 277 276 275 275 275 274 272 271 270 270 269 269 269 269 268 267 266 265 264 264 263 263 262 262 262 262 261 261 261 261
281 281 280 280 280 279 279 279 279 278 279 278 279 279 280 280 279 279 277 276 274 273 272 272 271 270 270 269 268 267 266 265 265 265 264 264 263 263 262 262 261 261 261 261
280 281 281 281 280 280 280 280 281 280 280 281 281 280 281 283 282 281 280 278 276 274 273 272 272 271 270 269 268 267 267 266 266 265 265 264 264 263 262 261 261 261 262 262
281 281 281 281 281 281 281 281 281 282 283 284 283 283 285 285 285 283 281 280 278 277 275 275 274 272 270 269 269 268 267 267 266 266 265 264 264 263 263 262 262 262 261 261
281 281 281 281 281 281 281 280 281 283 283 284 284 285 285 286 286 284 283 282 281 279 278 277 275 273 271 270 269 268 268 267 266 266 265 264 264 263 263 263 263 263 262 261
282 282 282 282 281 281 281 282 283 283 283 284 285 286 287 287 288 287 286 284 283 282 280 278 276 274 272 271 270 269 269 268 267 266 265 264 263 262 263 262 263 263 263 263
283 283 283 282 281 282 282 281 282 283 283 285 287 288 289 290 290 289 288 286 285 283 282 280 278 276 275 273 272 270 269 269 268 266 265 265 264 263 264 263 263 264 264 264
282 282 283 282 282 282 282 282 283 283 285 287 288 290 291 291 290 289 289 288 286 285 283 282 280 278 277 275 274 273 271 270 269 268 267 266 265 266 265 265 265 265 265 265
281 281 282 283 284 283 282 283 283 283 285 286 289 291 292 292 291 290 289 289 289 287 285 284 282 281 279 277 275 273 272 271 270 269 267 266 267 267 266 266 266 265 265 265
280 280 282 284 285 285 284 283 282 283 285 287 289 290 290 290 290 290 290 290 290 289 288 287 286 284 282 279 277 275 274 273 272 270 270 269 269 268 268 267 267 266 266 266
280 281 282 283 283 283 283 283 283 285 287 288 289 289 290 290 290 290 290 291 291 291 291 291 289 288 285 284 281 277 275 274 275 274 272 271 270 270 269 269 268 267 267 266
280 281 283 283 284 283 282 282 283 285 286 288 289 290 289 289 289 290 291 292 291 292 293 293 291 289 288 286 284 282 280 278 278 277 274 272 272 271 270 269 268 268 267 267
281 282 284 285 285 284 283 284 284 285 287 289 289 290 290 289 290 292 293 293 293 293 293 293 291 290 289 287 286 285 283 281 280 278 276 274 273 273 272 271 270 269 268 268
283 283 284 285 286 285 287 286 286 287 288 289 289 289 290 291 292 294 295 295 294 295 295 294 293 291 290 289 287 286 285 284 281 279 277 276 275 275 274 273 273 271 270 269
283 285 286 287 287 288 289 289 289 289 289 290 291 292 292 293 294 295 297 296 296 297 296 296 295 293 292 291 290 289 288 287 284 282 281 280 279 278 277 275 274 273 272 271
284 285 287 289 290 290 291 292 292 291 291 294 294 294 295 295 295 296 298 298 298 298 298 298 296 295 295 294 292 291 290 289 287 285 285 284 283 281 279 278 276 276 274 273
286 286 287 289 291 291 293 294 295 294 296 295 295 296 296 296 297 297 297 298 298 299 299 298 297 297 297 297 296 294 292 291 290 289 288 286 285 283 282 280 279 278 276 275
288 287 287 288 291 293 294 294 295 295 295 296 296 296 296 297 297 297 298 299 299 299 299 299 298 298 298 299 298 297 295 292 292 291 290 289 288 285 284 282 281 280 278 278
288 289 289 288 291 293 292 293 295 297 297 297 297 297 298 298 298 298 298 299 299 299 299 299 300 300 299 298 297 297 296 295 293 292 291 290 289 288 287 285 283 282 281 280
288 290 291 290 291 291 292 294 296 296 296 297 297 297 298 299 300 300 299 299 299 299 298 299 300 301 300 298 298 297 296 295 295 294 292 290 289 288 288 286 286 285 284 283
291 292 290 290 290 291 293 295 296 295 295 296 297 298 298 299 300 300 300 300 299 298 298 299 300 300 300 300 298 297 296 296 295 295 294 292 290 289 288 288 287 287 286 285
291 291 291 292 292 293 294 295 294 294 294 295 296 297 298 299 299 299 300 300 299 299 299 299 299 300 300 300 299 298 297 296 296 295 294 292 292 290 289 288 288 288 288 286
Height
5703 5703 5702 5701 5700 5698 5697 5696 5696 5696 5694 5693 5693 5693 5695 5694 5693 5694 5694 5693 5693 5693 5693 5693 5693 5693 5693 5694 5694 5695 5695 5696 5696 5697 5698 5699 5700 5701 5702 5703 5705 5706 5708 5710
5695 5694 5694 5691 5690 5689 5687 5686 5686 5686 5684 5682 5682 5682 5683 5683 5682 5682 5681 5681 5681 5681 5681 5681 5681 5680 5681 5681 5682 5682 5682 5683 5683 5684 5684 5685 5686 5687 5688 5690 5692 5693 5695 5697
5686 5686 5684 5682 5681 5679 5678 5677 5676 5675 5673 5671 5670 5670 5672 5672 5670 5670 5669 5668 5668 5668 5668 5668 5668 5667 5667 5668 5668 5668 5668 5668 5669 5669 5670 5671 5672 5673 5674 5676 5677 5679 5681 5683
5676 5676 5675 5673 5672 5670 5669 5667 5665 5664 5662 5660 5660 5657 5661 5660 5658 5657 5657 5656 5655 5655 5654 5654 5654 5653 5653 5653 5653 5653 5653 5653 5654 5654 5655 5656 5657 5659 5660 5661 5663 5664 5667 5669
5667 5666 5665 5663 5662 5660 5658 5657 5655 5653 5650 5649 5649 5645 5648 5647 5646 5645 5644 5642 5641 5640 5640 5639 5639 5638 5638 5638 5638 5638 5638 5638 5639 5640 5640 5641 5643 5644 5645 5646 5648 5650 5651 5653
5658 5656 5655 5654 5652 5650 5648 5646 5644 5642 5640 5638 5639 5635 5634 5635 5633 5632 5630 5629 5627 5626 5624 5624 5623 5623 5622 5622 5622 5623 5623 5623 5624 5625 5625 5626 5627 5629 5630 5631 5633 5634 5636 5638
5649 5647 5646 5644 5642 5641 5639 5637 5633 5630 5629 5628 5627 5624 5624 5623 5621 5619 5617 5615 5613 5612 5610 5609 5608 5608 5607 5607 5608 5608 5608 5609 5609 5609 5610 5611 5612 5613 5615 5616 5618 5619 5621 5622
5638 5638 5637 5634 5633 5631 5629 5627 5625 5621 5618 5617 5615 5613 5614 5612 5609 5606 5604 5602 5599 5598 5596 5595 5594 5593 5593 5593 5593 5593 5593 5594 5594 5594 5594 5595 5596 5597 5599 5601 5602 5603 5605 5606
5628 5627 5626 5624 5622 5621 5618 5617 5615 5611 5607 5605 5603 5602 5602 5600 5597 5594 5591 5589 5586 5584 5582 5581 5579 5579 5578 5578 5578 5578 5578 5578 5578 5579 5579 5580 5580 5582 5583 5585 5586 5587 5588 5589
5618 5617 5617 5615 5613 5611 5609 5607 5604 5600 5596 5593 5592 5592 5591 5588 5585 5582 5579 5576 5573 5571 5568 5566 5565 5564 5563 5563 5563 5563 5563 5563 5563 5563 5564 5564 5565 5566 5567 5569 5570 5571 5572 5573
5608 5607 5606 5605 5603 5601 5600 5598 5594 5590 5587 5584 5580 5583 5580 5577 5573 5570 5566 5563 5560 5558 5555 5553 5551 5550 5549 5548 5548 5547 5547 5547 5547 5548 5548 5549 5549 5550 5551 5552 5553 5554 5555 5556
5598 5596 5595 5594 5593 5590 5589 5587 5584 5582 5578 5574 5570 5573 5569 5566 5561 5558 5554 5551 5548 5545 5542 5540 5538 5536 5535 5534 5533 5532 5532 5532 5532 5532 5533 5533 5534 5534 5535 5536 5537 5538 5539 5540
5588 5586 5584 5583 5584 5581 5578 5576 5573 5570 5567 5564 5561 5563 5558 5554 5550 5546 5543 5540 5537 5534 5530 5528 5525 5523 5521 5520 5519 5518 5518 5517 5517 5517 5518 5518 5518 5519 5519 5520 5521 5522 5523 5524
5577 5576 5575 5574 5571 5569 5567 5565 5563 5560 5557 5554 5552 5551 5548 5543 5539 5536 5533 5530 5526 5523 5519 5516 5514 5511 5508 5506 5505 5504 5504 5503 5503 5503 5503 5503 5503 5503 5504 5505 5506 5506 5507 5508
5567 5566 5564 5563 5561 5559 5557 5555 5552 5550 5547 5544 5543 5540 5537 5533 5530 5526 5523 5520 5516 5513 5509 5506 5503 5500 5497 5495 5493 5492 5491 5491 5490 5490 5489 5489 5488 5488 5489 5489 5490 5490 5491 5491
5557 5555 5554 5553 5551 5548 5546 5545 5542 5540 5537 5533 5531 5530 5527 5523 5520 5516 5513 5510 5507 5503 5500 5496 5493 5490 5487 5485 5483 5481 5479 5478 5477 5476 5475 5474 5474 5474 5473 5473 5474 5474 5474 5475
5548 5546 5543 5542 5540 5537 5536 5536 5533 5530 5527 5524 5521 5520 5516 5513 5510 5507 5504 5500 5497 5494 5490 5487 5483 5480 5477 5474 5472 5469 5467 5466 5464 5463 5462 5461 5460 5459 5458 5458 5458 5458 5458 5458
5538 5536 5533 5531 5530 5527 5530 5526 5523 5520 5518 5515 5512 5509 5507 5504 5501 5498 5494 5491 5487 5484 5481 5477 5474 5471 5468 5465 5462 5459 5457 5454 5452 5451 5449 5448 5446 5445 5445 5444 5443 5442 5442 5442
5529 5527 5524 5522 5519 5518 5519 5516 5513 5511 5510 5507 5503 5501 5498 5495 5492 5490 5486 5482 5478 5475 5471 5468 5465 5461 5458 5455 5452 5450 5447 5444 5441 5439 5437 5436 5434 5433 5431 5430 5429 5428 5427 5427
5520 5518 5517 5513 5510 5509 5511 5508 5504 5502 5501 5499 5495 5492 5489 5486 5484 5482 5477 5473 5470 5466 5462 5459 5456 5452 5449 5446 5443 5440 5437 5434 5431 5429 5426 5424 5422 5420 5419 5417 5415 5414 5413 5412
5512 5510 5508 5506 5502 5501 5502 5499 5496 5495 5493 5490 5486 5483 5480 5477 5475 5472 5468 5465 5461 5457 5454 5450 5447 5444 5440 5437 5434 5430 5427 5424 5421 5418 5416 5413 5411 5409 5407 5404 5403 5401 5400 5399
5504 5502 5501 5498 5496 5497 5493 5490 5489 5486 5483 5480 5477 5475 5472 5469 5466 5462 5459 5456 5452 5449 5445 5442 5439 5436 5432 5428 5425 5421 5418 5415 5411 5408 5405 5403 5400 5397 5395 5393 5391 5389 5387 5386
5497 5496 5493 5492 5491 5488 5485 5482 5480 5477 5475 5472 5469 5466 5463 5460 5457 5454 5451 5447 5444 5440 5437 5433 5430 5427 5423 5419 5416 5412 5409 5405 5402 5398 5395 5392 5389 5386 5383 5381 5379 5377 5375 5374
5491 5488 5486 5484 5483 5480 5477 5474 5472 5469 5466 5463 5461 5458 5454 5451 5448 5445 5442 5438 5435 5432 5428 5425 5421 5418 5414 5410 5406 5403 5399 5396 5392 5389 5385 5382 5379 5376 5373 5370 5368 5366 5364 5362
5483 5481 5479 5477 5475 5473 5470 5467 5464 5461 5458 5455 5452 5449 5446 5442 5439 5436 5433 5429 5426 5422 5419 5416 5412 5409 5405 5401 5397 5393 5389 5386 5382 5378 5375 5372 5369 5366 5363 5360 5358 5356 5353 5350
5476 5474 5471 5469 5467 5464 5463 5459 5456 5453 5450 5447 5444 5441 5437 5434 5430 5427 5423 5420 5416 5413 5409 5406 5402 5399 5395 5391 5387 5383 5379 5376 5372 5369 5365 5362 5359 5356 5353 5350 5348 5344 5342 5340